Location: Unspecified
(0.0000°N, 0.0000°E)
Time: 17:08:03
(UTC+00:00)

CZ-3C DEB - Pass Details

Date: 07 March 2026
Orbit: 640 x 36740 km, 20.7° (Epoch: 1 May)

Event Time Altitude Azimuth Distance (km) Brightness Sun altitude
Rises 22:01:45 0° 250° (WSW) 13,736 ? -57.4°
Reaches altitude 10° 22:20:21 10° 239° (WSW) 7,399 ? -61.9°
Enters shadow 22:29:07 21° 220° (SW) 3,910 ? -64.1°
